TimeEDT,TemperatureF,Dew PointF,Humidity,Sea Level PressureIn,VisibilityMPH,Wind Direction,Wind SpeedMPH,Gust SpeedMPH,PrecipitationIn,Events,Conditions,WindDirDegrees,DateUTC
12:29 AM,71.6,71.6,100,30.11,7.0,SW,3.5,-,0.01,,Overcast,220,2013-08-11 04:29:00
12:53 AM,72.0,71.1,97,30.09,6.0,Calm,Calm,-,0.01,,Overcast,0,2013-08-11 04:53:00
1:53 AM,72.0,70.0,93,30.09,6.0,Calm,Calm,-,N/A,,Overcast,0,2013-08-11 05:53:00
2:53 AM,71.1,69.1,93,30.08,7.0,Calm,Calm,-,N/A,,Mostly Cloudy,0,2013-08-11 06:53:00
3:53 AM,71.1,69.1,93,30.07,7.0,Calm,Calm,-,N/A,,Overcast,0,2013-08-11 07:53:00
4:53 AM,71.1,69.1,93,30.08,6.0,South,3.5,-,N/A,,Scattered Clouds,180,2013-08-11 08:53:00
5:34 AM,71.6,69.8,94,30.11,2.5,Calm,Calm,-,0.03,Rain,Rain,0,2013-08-11 09:34:00
5:45 AM,71.6,69.8,94,30.11,3.0,Calm,Calm,-,0.05,Rain,Light Rain,0,2013-08-11 09:45:00
5:53 AM,71.1,69.1,93,30.09,2.5,Calm,Calm,-,0.07,Rain,Rain,0,2013-08-11 09:53:00
6:53 AM,69.1,66.9,93,30.12,2.0,Calm,Calm,-,0.15,Rain,Light Rain,0,2013-08-11 10:53:00
7:00 AM,69.8,66.2,88,30.14,7.0,Calm,Calm,-,0.00,Rain,Light Rain,0,2013-08-11 11:00:00
7:53 AM,70.0,66.9,90,30.12,5.0,Calm,Calm,-,0.00,Rain,Light Rain,0,2013-08-11 11:53:00
8:18 AM,69.8,66.2,88,30.14,4.0,NNW,4.6,-,0.00,Rain,Light Rain,330,2013-08-11 12:18:00
8:53 AM,69.1,66.9,93,30.12,4.0,North,3.5,-,0.00,,Overcast,360,2013-08-11 12:53:00
9:30 AM,69.8,66.2,88,30.14,1.8,Calm,Calm,-,0.02,Rain,Light Rain,0,2013-08-11 13:30:00
9:45 AM,69.8,66.2,88,30.14,3.0,Calm,Calm,-,0.05,Rain,Light Rain,0,2013-08-11 13:45:00
9:53 AM,69.1,66.9,93,30.13,3.0,NW,3.5,-,0.05,Rain,Light Rain,320,2013-08-11 13:53:00
10:22 AM,69.8,66.2,88,30.14,7.0,Calm,Calm,-,0.01,,Overcast,0,2013-08-11 14:22:00
10:53 AM,73.0,64.9,76,30.11,10.0,Calm,Calm,-,0.01,,Overcast,0,2013-08-11 14:53:00
11:53 AM,73.9,66.0,76,30.11,10.0,Calm,Calm,-,N/A,,Overcast,0,2013-08-11 15:53:00
12:53 PM,77.0,66.9,71,30.09,10.0,Calm,Calm,-,N/A,,Scattered Clouds,0,2013-08-11 16:53:00
1:03 PM,77.0,66.2,69,30.11,10.0,Calm,Calm,-,N/A,,Mostly Cloudy,0,2013-08-11 17:03:00
1:40 PM,78.8,69.8,74,30.10,10.0,SSW,3.5,-,N/A,,Partly Cloudy,210,2013-08-11 17:40:00
1:53 PM,79.0,70.0,74,30.07,10.0,South,5.8,-,N/A,,Mostly Cloudy,170,2013-08-11 17:53:00
2:53 PM,77.0,70.0,79,30.06,10.0,South,4.6,-,N/A,,Mostly Cloudy,190,2013-08-11 18:53:00
3:53 PM,80.1,71.1,74,30.04,10.0,South,4.6,-,N/A,,Mostly Cloudy,190,2013-08-11 19:53:00
4:02 PM,80.6,71.6,74,30.06,10.0,SSW,4.6,-,N/A,,Mostly Cloudy,200,2013-08-11 20:02:00
4:53 PM,79.0,71.1,77,30.03,10.0,South,4.6,-,N/A,,Mostly Cloudy,180,2013-08-11 20:53:00
5:53 PM,81.0,70.0,69,30.02,10.0,Calm,Calm,-,N/A,,Scattered Clouds,0,2013-08-11 21:53:00
6:53 PM,78.1,70.0,76,30.03,10.0,South,5.8,-,N/A,,Mostly Cloudy,190,2013-08-11 22:53:00
7:53 PM,78.1,71.1,79,30.03,10.0,South,5.8,-,N/A,,Mostly Cloudy,190,2013-08-11 23:53:00
8:46 PM,75.2,71.6,89,30.06,10.0,Calm,Calm,-,N/A,,Mostly Cloudy,0,2013-08-12 00:46:00
8:53 PM,75.9,71.1,85,30.04,10.0,Calm,Calm,-,N/A,,Mostly Cloudy,0,2013-08-12 00:53:00
9:10 PM,75.2,71.6,89,30.06,9.0,Calm,Calm,-,N/A,,Mostly Cloudy,0,2013-08-12 01:10:00
9:53 PM,75.0,71.1,87,30.05,10.0,Calm,Calm,-,N/A,,Mostly Cloudy,0,2013-08-12 01:53:00
10:30 PM,73.4,71.6,94,30.05,9.0,SSE,4.6,-,N/A,,Partly Cloudy,150,2013-08-12 02:30:00
10:53 PM,73.9,71.1,91,30.03,9.0,Calm,Calm,-,N/A,,Clear,0,2013-08-12 02:53:00
11:53 PM,72.0,71.1,97,30.03,6.0,Calm,Calm,-,N/A,,Clear,0,2013-08-12 03:53:00